CW7769 Weather Reports


time (UTC)temp
C
wind
direction
speed
KPH
gust
KPH
rain 1hr
cm
rain 24hr
cm
rain mn
cm
humidity
%
barometer
mb
20260901135158 25 270 3.2 19.3 0.00 0.43 0.00 35 1020.8
20260901130756 26 286 4.8 20.9 0.00 0.43 0.00 32 1020.9
20260901125743 26 280 4.8 16.1 0.00 0.43 0.00 33 1021.1
20260901124716 26 194 4.8 17.7 0.00 0.43 0.00 35 1021.1
20260901123724 25 237 6.4 19.3 0.00 0.43 0.00 34 1021.3
20260901121545 26 275 3.2 20.9 0.00 0.43 0.00 35 1021.2
20260901120609 25 266 4.8 20.9 0.00 0.43 0.00 37 1021.3
20260901115557 26 286 4.8 14.5 0.00 0.43 0.00 36 1021.4
20260901114549 26 240 1.6 12.9 0.00 0.43 0.00 38 1021.5
20260901113517 25 292 3.2 14.5 0.00 0.43 0.00 39 1021.6
20260901112509 25 296 3.2 14.5 0.00 0.43 0.00 40 1021.6
20260901111453 25 263 4.8 16.1 0.00 0.43 0.00 41 1021.7
20260901110447 24 278 6.4 16.1 0.00 0.43 0.00 41 1021.8
20260901105441 24 281 6.4 19.3 0.00 0.43 0.00 42 1021.8
20260901103326 23 286 4.8 24.1 0.00 0.43 0.00 43 1021.8
20260901102331 22 277 6.4 24.1 0.00 0.43 0.00 45 1021.9
20260901101311 22 226 6.4 20.9 0.00 0.43 0.00 47 1022.1
20260901100303 22 290 4.8 17.7 0.00 0.43 0.00 47 1021.9
20260901095229 22 161 1.6 16.1 0.00 0.46 0.00 49 1022.1
20260901094202 21 239 6.4 16.1 0.00 0.46 0.00 49 1022.2
20260901093128 21 275 4.8 14.5 0.00 0.46 0.00 50 1022.3
20260901092140 21 208 4.8 14.5 0.00 0.46 0.00 50 1022.3
20260901091202 21 248 3.2 12.9 0.00 0.46 0.00 51 1022.3
20260901090152 21 271 4.8 12.9 0.00 0.46 0.00 53 1022.3
20260901085207 21 232 3.2 11.3 0.00 0.46 0.00 53 1022.4
20260901084138 21 279 1.6 8.0 0.00 0.46 0.00 55 1022.3
20260901083137 20 271 1.6 4.8 0.00 0.46 0.00 56 1022.3
20260901081042 20 227 1.6 8.0 0.00 0.46 0.00 56 1022.2
20260901074845 19 234 1.6 3.2 0.00 0.46 0.00 59 1022.1
20260901073901 18 188 3.2 0.0 0.00 0.46 0.00 61 1022.1
20260901072916 18 193 3.2 8.0 0.00 0.46 0.00 64 1021.9
20260901071848 17 268 3.2 0.0 0.00 0.46 0.00 71 1021.8
20260901070903 16 296 3.2 11.3 0.00 0.46 0.00 72 1021.9
20260901064729 15 251 1.6 6.4 0.00 0.46 0.00 74 1021.8
20260901063734 15 265 0.0 6.4 0.00 0.46 0.00 74 1021.8
20260901062703 15 227 0.0 0.0 0.00 0.46 0.00 74 1021.7
20260901061643 14 227 0.0 0.0 0.00 0.46 0.00 74 1021.8
20260901055542 13 227 0.0 0.0 0.00 0.46 0.00 73 1021.6
20260901054537 13 227 0.0 0.0 0.00 0.46 0.00 72 1021.6
20260901053512 13 227 0.0 0.0 0.00 0.46 0.00 72 1021.5
20260901052509 13 227 0.0 0.0 0.00 0.46 0.00 72 1021.5
20260901050312 13 227 0.0 0.0 0.00 0.46 0.00 71 1021.5
20260901045321 13 227 0.0 0.0 0.00 0.46 0.00 71 1021.4
20260901044258 13 227 0.0 0.0 0.00 0.46 0.00 71 1021.4
20260901043320 14 227 0.0 0.0 0.00 0.46 0.00 72 1021.3
20260901042249 14 227 0.0 0.0 0.00 0.46 0.00 72 1021.4
20260901041223 14 227 0.0 0.0 0.00 0.46 0.00 72 1021.3
20260901040235 14 227 1.6 8.0 0.00 0.46 0.00 72 1021.3
20260901035221 14 212 1.6 8.0 0.00 0.46 0.00 72 1021.3
20260901034221 14 221 1.6 8.0 0.00 0.46 0.00 71 1021.3
20260901033150 14 208 3.2 8.0 0.00 0.46 0.00 71 1021.3
20260901032130 14 221 1.6 4.8 0.00 0.46 0.00 71 1021.2
20260901031144 14 235 1.6 4.8 0.00 0.46 0.00 71 1021.1
20260901030120 14 239 0.0 0.0 0.00 0.46 0.00 71 1021.2
20260901025054 14 239 1.6 4.8 0.00 0.46 0.00 71 1021.2
20260901024030 14 239 1.6 4.8 0.00 0.46 0.00 70 1021.2
20260901023023 14 232 1.6 6.4 0.00 0.46 0.00 70 1021.1
20260901021955 14 244 1.6 8.0 0.00 0.46 0.00 70 1021.2
20260901021009 14 230 1.6 8.0 0.00 0.46 0.00 70 1021.2
20260901020020 14 228 1.6 6.4 0.00 0.46 0.00 70 1021.2
20260901015034 15 279 0.0 3.2 0.00 0.46 0.00 70 1021.1
20260901012938 15 250 0.0 4.8 0.00 0.46 0.00 70 1020.8
20260901011933 15 237 1.6 0.0 0.00 0.46 0.00 69 1020.7
20260901010947 15 194 1.6 6.4 0.00 0.46 0.00 69 1020.7
20260901010000 15 178 0.0 4.8 0.00 0.46 0.00 68 1020.7
20260901005008 15 262 0.0 0.0 0.00 0.46 0.00 68 1020.7
20260901001749 15 262 0.0 0.0 0.00 0.48 0.00 67 1020.7
20260901000750 16 262 0.0 0.0 0.00 0.48 0.00 67 1020.7
20260831235757 16 262 0.0 0.0 0.00 0.48 0.00 67 1020.6
20260831234803 16 262 0.0 0.0 0.00 0.51 0.00 67 1020.4
20260831233802 16 262 0.0 0.0 0.00 0.58 0.00 67 1020.5
20260831232807 16 262 0.0 0.0 0.00 0.61 0.00 67 1020.4
20260831231816 16 261 0.0 3.2 0.00 0.61 0.00 67 1020.3
20260831230742 16 242 1.6 9.7 0.00 0.61 0.00 67 1020.3
20260831225801 16 277 1.6 9.7 0.00 0.61 0.00 67 1020.2
20260831224747 16 275 1.6 4.8 0.00 0.61 0.00 67 1020.2
20260831223738 16 282 1.6 6.4 0.00 0.61 0.00 67 1020.2
20260831222740 16 274 1.6 8.0 0.00 0.61 0.00 67 1020.1
20260831221759 16 265 1.6 8.0 0.00 0.61 0.00 68 1020.1
20260831220811 16 269 0.0 9.7 0.00 0.61 0.00 68 1020.2
20260831215829 16 240 1.6 9.7 0.00 0.61 0.61 68 1020.0
20260831212541 17 298 0.0 4.8 0.00 0.61 0.61 69 1019.8
20260831211552 17 191 0.0 3.2 0.00 0.61 0.61 68 1019.7
20260831205418 17 193 0.0 4.8 0.00 0.61 0.61 68 1019.4
20260831204435 17 219 0.0 4.8 0.00 0.61 0.61 67 1019.3
20260831203414 17 213 0.0 1.6 0.00 0.61 0.61 67 1019.3
20260831202343 17 219 1.6 3.2 0.00 0.61 0.61 66 1019.4
20260831201333 17 223 1.6 6.4 0.08 0.61 0.61 66 1019.2
20260831195300 18 223 4.8 17.7 0.15 0.58 0.58 65 1018.9
20260831194239 18 238 4.8 17.7 0.25 0.56 0.56 64 1018.9
20260831193302 18 273 1.6 8.0 0.00 0.53 0.53 62 1018.8
20260831192318 18 191 1.6 6.4 0.00 0.53 0.53 62 1018.4
20260831191334 18 237 1.6 4.8 0.00 0.53 0.53 61 1018.2
20260831185203 18 191 1.6 9.7 0.00 0.53 0.53 61 1017.9
20260831184218 18 217 1.6 8.0 0.00 0.53 0.53 61 1017.9
20260831183153 19 221 4.8 12.9 0.00 0.53 0.53 61 1017.7
20260831181048 19 209 3.2 14.5 0.00 0.53 0.53 61 1017.5
20260831180056 19 175 3.2 17.7 0.00 0.53 0.53 61 1017.4
20260831175055 20 187 4.8 17.7 0.00 0.53 0.53 60 1017.4
20260831174036 20 244 6.4 16.1 0.00 0.53 0.53 60 1017.3
20260831171827 20 176 6.4 19.3 0.00 0.53 0.53 61 1017.0
20260831165657 20 171 6.4 17.7 0.00 0.53 0.53 61 1017.1
20260831164634 20 211 6.4 17.7 0.00 0.53 0.53 61 1016.9
20260831163648 20 215 6.4 20.9 0.00 0.53 0.53 61 1016.9
20260831162650 20 244 6.4 20.9 0.00 0.53 0.53 61 1016.9
20260831161653 20 254 6.4 20.9 0.00 0.53 0.53 62 1017.0
20260831160650 20 215 6.4 17.7 0.00 0.53 0.53 62 1016.8
20260831155713 20 239 4.8 14.5 0.00 0.53 0.53 63 1016.9
20260831154654 20 218 3.2 9.7 0.00 0.53 0.53 65 1016.7
20260831153638 20 208 1.6 9.7 0.00 0.53 0.53 67 1016.9
20260831152648 20 207 1.6 14.5 0.00 0.53 0.53 68 1016.9
20260831151707 20 211 4.8 14.5 0.00 0.53 0.53 68 1016.8
20260831150714 19 243 4.8 14.5 0.08 0.53 0.53 67 1016.8
20260831145715 20 223 4.8 41.8 0.15 0.53 0.53 62 1016.8
20260831144703 21 213 16.1 41.8 0.46 0.51 0.51 56 1017.0
20260831140202 26 217 9.7 24.1 0.00 0.18 0.18 35 1015.4